Weather reports worldwide

Advertisment
Forli, Italy (16147): temperature & dewpoint: 03.07.2020 03:00:00 - 09.07.2020 03:00:00 (CEST)Forli, Italy (16147): wind speed: 03.07.2020 03:00:00 - 09.07.2020 03:00:00 (CEST)Forli, Italy (16147): wind direction: 03.07.2020 03:00:00 - 09.07.2020 03:00:00 (CEST)Forli, Italy (16147): reduced air pressure: 03.07.2020 03:00:00 - 09.07.2020 03:00:00 (CEST)Forli, Italy (16147): visibility: 03.07.2020 03:00:00 - 09.07.2020 03:00:00 (CEST)Forli, Italy (16147): precipitation: 03.07.2020 03:00:00 - 09.07.2020 03:00:00 (CEST)
Date & Time tt [°C] td [°C] ff [km/h] ff [kn] dd ppp [hPa] vv [km] rr [mm]
09.07.2020 03:00:00 - - - - - - - -
09.07.2020 02:00:00 19,2 11,7 1 0 SSW 1014,5 - 0,0
09.07.2020 01:00:00 - - - - - - - -
09.07.2020 00:00:00 - - - - - - - -
08.07.2020 23:00:00 22,0 11,4 3 2 SSW 1014,4 - 0,0
08.07.2020 22:00:00 22,7 11,1 5 3 ESE 1014,1 - 0,0
08.07.2020 21:00:00 23,5 10,5 8 5 E 1013,6 - 0,0
08.07.2020 20:00:00 24,8 8,3 10 5 ENE 1013,4 - 0,0
08.07.2020 19:00:00 25,7 8,2 12 7 E 1013,4 - 0,0
08.07.2020 18:00:00 26,1 8,1 9 5 ENE 1013,5 10 0,0
08.07.2020 17:00:00 26,7 7,7 15 8 ENE 1013,9 10 0,0
08.07.2020 16:00:00 26,5 7,5 16 9 ENE 1014,3 10 0,0
08.07.2020 15:00:00 26,4 7,9 11 6 ENE 1014,6 10 0,0
08.07.2020 14:00:00 26,4 7,9 13 7 NNE 1014,8 10 0,0
08.07.2020 13:00:00 25,9 8,8 13 7 E 1015,2 10 0,0
08.07.2020 12:00:00 25,1 10,2 9 5 NNE 1015,6 10 0,0
08.07.2020 11:00:00 23,4 11,4 5 3 - 1015,7 10 0,0
08.07.2020 10:00:00 23,0 10,1 3 2 NNW 1015,8 10 0,0
08.07.2020 09:00:00 20,4 10,5 3 2 NW 1015,9 - 0,0
08.07.2020 08:00:00 17,9 9,8 5 3 WNW 1015,6 - 0,0
08.07.2020 07:00:00 16,3 9,0 - - - 1015,0 - 0,0
08.07.2020 06:00:00 15,1 8,6 7 4 S 1014,9 - 0,0
08.07.2020 05:00:00 15,2 8,9 8 4 S 1014,8 - 0,0
08.07.2020 04:00:00 15,4 9,3 9 5 S 1015,1 - 0,0
08.07.2020 03:00:00 15,6 9,9 4 2 SSW 1015,2 - 0,0
08.07.2020 02:00:00 16,1 10,2 5 3 SW 1015,3 - 0,0
08.07.2020 01:00:00 17,0 10,4 7 4 S 1015,2 - 0,0
08.07.2020 00:00:00 17,7 10,3 6 4 SW 1015,1 - 0,0
07.07.2020 23:00:00 20,4 9,6 5 3 SSW 1014,5 - 0,0
07.07.2020 22:00:00 21,1 10,3 6 3 ESE 1014,2 - 0,0
07.07.2020 21:00:00 22,0 10,5 9 5 ESE 1013,7 - 0,0
07.07.2020 20:00:00 23,2 8,9 11 6 ESE 1013,6 - 0,0
07.07.2020 19:00:00 24,0 7,2 10 5 E 1013,5 - 0,0
07.07.2020 18:00:00 24,1 6,8 11 6 ENE 1013,5 10 0,0
07.07.2020 17:00:00 24,3 7,0 16 9 E 1013,6 10 0,0
07.07.2020 16:00:00 24,1 6,8 15 8 ENE 1013,8 10 0,0
07.07.2020 15:00:00 24,0 8,8 16 9 ENE 1013,8 10 0,0
07.07.2020 14:00:00 23,3 10,0 16 9 E 1014,2 10 0,0
07.07.2020 13:00:00 20,9 13,6 13 7 NE 1014,6 10 0,0
07.07.2020 12:00:00 20,2 14,6 13 7 ESE 1014,7 10 0,0
07.07.2020 11:00:00 19,3 13,9 9 5 E 1014,7 10 0,0
07.07.2020 10:00:00 18,3 13,6 8 4 SE 1014,3 10 0,0
07.07.2020 09:00:00 17,6 13,7 15 8 E 1013,8 - 0,0
07.07.2020 08:00:00 19,9 13,4 17 9 ENE 1012,6 - 0,0
07.07.2020 07:00:00 20,9 14,1 16 9 ENE 1011,2 - 0,0
07.07.2020 06:00:00 21,3 14,0 32 17 ENE 1009,6 - 0,0
07.07.2020 05:00:00 22,8 16,4 26 14 E 1008,0 - 0,0
07.07.2020 04:00:00 23,9 18,5 19 10 ENE 1006,4 - 0,0
07.07.2020 03:00:00 24,5 17,0 11 6 NNE 1004,8 - 0,0
07.07.2020 02:00:00 24,2 16,5 3 1 S 1003,8 - 0,0
07.07.2020 01:00:00 24,8 16,0 3 1 SE 1003,8 - 0,0
07.07.2020 00:00:00 25,6 15,6 4 2 SSE 1003,7 - 0,0
06.07.2020 23:00:00 26,4 15,1 6 4 S 1003,3 - 0,0
06.07.2020 22:00:00 27,2 15,6 6 3 SSE 1003,1 - 0,0
06.07.2020 21:00:00 28,3 14,5 9 5 ESE 1003,1 - 0,0
06.07.2020 20:00:00 29,8 14,0 9 5 ESE 1003,4 - 0,0
06.07.2020 19:00:00 30,7 12,6 10 5 ESE 1003,6 - 0,0
06.07.2020 18:00:00 31,5 11,3 11 6 E 1004,4 10 0,0
06.07.2020 17:00:00 31,5 11,8 5 3 - 1005,1 10 0,0
06.07.2020 16:00:00 31,5 12,8 15 8 ENE 1005,3 10 0,0
06.07.2020 15:00:00 31,7 12,0 9 5 ENE 1005,9 10 0,0
06.07.2020 14:00:00 31,5 12,3 9 5 N 1006,6 10 0,0
06.07.2020 13:00:00 31,0 13,7 2 1 - 1007,2 10 0,0
06.07.2020 12:00:00 29,5 14,1 5 3 - 1007,8 10 0,0
06.07.2020 11:00:00 29,0 14,8 4 2 - 1008,2 10 0,0
06.07.2020 10:00:00 27,3 15,0 8 4 NW 1008,6 10 0,0
06.07.2020 09:00:00 25,9 15,3 4 2 WNW 1009,1 - 0,0
06.07.2020 08:00:00 23,6 14,6 4 2 W 1009,1 - 0,0
06.07.2020 07:00:00 21,6 13,8 6 3 SW 1008,9 - 0,0
06.07.2020 06:00:00 20,5 13,2 - - - 1009,2 - 0,0
06.07.2020 05:00:00 20,6 12,8 5 3 SSW 1009,4 - 0,0
06.07.2020 04:00:00 20,3 12,3 8 5 S 1009,9 - 0,0
06.07.2020 03:00:00 21,3 12,2 8 4 S 1010,2 - 0,0
06.07.2020 02:00:00 21,0 11,9 7 4 S 1010,8 - 0,0
06.07.2020 01:00:00 22,4 11,8 5 3 S 1011,1 - 0,0
06.07.2020 00:00:00 22,8 11,5 6 3 S 1011,4 - 0,0
05.07.2020 23:00:00 23,7 11,7 5 3 SW 1011,4 - 0,0
05.07.2020 22:00:00 27,0 10,7 4 2 ESE 1011,3 - 0,0
05.07.2020 21:00:00 27,9 9,7 4 2 E 1010,8 - 0,0
05.07.2020 20:00:00 28,8 9,5 7 4 E 1011,0 - 0,0
05.07.2020 19:00:00 29,2 8,8 11 6 ESE 1011,3 - 0,0
05.07.2020 18:00:00 29,6 9,7 8 4 E 1011,8 - 0,0
05.07.2020 17:00:00 29,7 10,3 11 6 NNE 1012,2 - 0,0
05.07.2020 16:00:00 29,9 9,9 9 5 NNE 1012,9 - 0,0
05.07.2020 15:00:00 29,7 8,7 11 6 ENE 1013,3 - 0,0
05.07.2020 14:00:00 28,9 9,1 10 6 NNE 1013,8 - 0,0
05.07.2020 13:00:00 28,8 10,0 13 7 NE 1014,1 - 0,0
05.07.2020 12:00:00 28,5 10,7 11 6 NNE 1014,5 - 0,0
05.07.2020 11:00:00 26,9 13,6 9 5 NNW 1014,8 - 0,0
05.07.2020 10:00:00 25,4 14,2 7 4 NNW 1014,9 - 0,0
05.07.2020 09:00:00 24,1 13,0 4 2 W 1014,9 - 0,0
05.07.2020 08:00:00 22,4 12,6 0 0 WSW 1014,8 - 0,0
05.07.2020 07:00:00 19,9 12,6 - - - 1014,7 - 0,0
05.07.2020 06:00:00 19,4 12,7 1 1 S 1014,5 - 0,0
05.07.2020 05:00:00 19,4 13,1 5 3 S 1014,3 - 0,0
05.07.2020 04:00:00 19,9 13,1 - - - 1014,1 - 0,0
05.07.2020 03:00:00 20,0 13,5 7 4 SSW 1014,2 - 0,0
05.07.2020 02:00:00 20,3 13,7 6 3 SSW 1014,4 - 0,0
05.07.2020 01:00:00 20,8 14,0 - - - 1014,5 - 0,0
05.07.2020 00:00:00 21,6 14,3 4 2 SW 1014,2 - 0,0
04.07.2020 23:00:00 23,3 13,5 1 1 SW 1014,1 - 0,0
04.07.2020 22:00:00 25,0 12,6 1 1 S 1013,8 - 0,0
04.07.2020 21:00:00 25,7 12,2 4 2 E 1013,4 - 0,0
04.07.2020 20:00:00 27,0 12,2 7 4 ENE 1013,2 - 0,0
04.07.2020 19:00:00 27,7 11,3 7 4 E 1012,8 - 0,0
04.07.2020 18:00:00 27,9 11,9 8 4 E 1012,8 - 0,0
04.07.2020 17:00:00 28,1 12,4 13 7 E 1013,1 - 0,0
04.07.2020 16:00:00 27,4 13,7 9 5 NNE 1013,4 - 0,0
04.07.2020 15:00:00 27,3 14,7 9 5 N 1013,7 - 0,0
04.07.2020 14:00:00 26,7 14,5 10 5 NNW 1014,2 - 0,0
04.07.2020 13:00:00 26,5 14,3 5 3 NNE 1014,7 - 0,0
04.07.2020 12:00:00 25,1 15,4 9 5 WNW 1014,9 - 0,0
04.07.2020 11:00:00 24,5 16,0 10 5 NW 1014,8 - 0,0
04.07.2020 10:00:00 22,8 16,1 13 7 NW 1014,8 - 0,0
04.07.2020 09:00:00 22,2 15,3 17 9 NW 1014,6 - 0,0
04.07.2020 08:00:00 21,0 15,8 9 5 WNW 1014,3 - 0,0
04.07.2020 07:00:00 19,6 15,7 11 6 WNW 1014,3 - 0,0
04.07.2020 06:00:00 19,1 16,1 15 8 NW 1014,3 - 0,0
04.07.2020 05:00:00 20,5 18,4 16 9 NW 1013,4 - 0,0
04.07.2020 04:00:00 21,2 19,1 6 3 WNW 1012,3 - 0,0
04.07.2020 03:00:00 21,4 19,1 1 1 SW 1012,7 - 0,0
04.07.2020 02:00:00 21,2 19,5 2 1 SW 1012,5 - 0,0
04.07.2020 01:00:00 22,3 19,7 6 3 SW 1012,4 - 0,0
04.07.2020 00:00:00 22,4 19,8 0 0 SE 1012,1 - 0,0
03.07.2020 23:00:00 23,0 19,8 1 0 SE 1011,5 - 0,0
03.07.2020 22:00:00 23,2 20,2 4 2 SE 1011,2 - 0,0
03.07.2020 21:00:00 22,9 19,7 7 4 ESE 1011,2 - 1,0
03.07.2020 20:00:00 23,9 20,2 11 6 NNE 1010,4 - 1,2
03.07.2020 19:00:00 25,7 19,3 4 2 SSE 1009,3 - 0,0
03.07.2020 18:00:00 27,7 19,2 5 3 - 1009,5 10 0,0
03.07.2020 17:00:00 26,4 18,0 18 10 N 1009,6 10 0,0
03.07.2020 16:00:00 28,1 17,3 11 6 NNE 1008,6 10 0,0
03.07.2020 15:00:00 29,1 16,3 8 4 NW 1008,7 10 0,0
03.07.2020 14:00:00 29,1 15,6 8 4 NNE 1009,0 10 0,0
03.07.2020 13:00:00 28,4 15,7 13 7 N 1009,5 10 0,0
03.07.2020 12:00:00 27,4 16,4 8 4 N 1009,3 10 0,0
03.07.2020 11:00:00 26,4 16,6 4 2 - 1009,3 10 0,0
03.07.2020 10:00:00 24,8 15,7 6 3 NW 1009,1 10 0,0
03.07.2020 09:00:00 24,0 16,0 7 4 NW 1008,9 - 0,0
03.07.2020 08:00:00 21,7 16,0 7 4 WNW 1008,6 - 0,0
03.07.2020 07:00:00 22,0 15,6 3 2 WNW 1008,3 - 0,0
03.07.2020 06:00:00 21,7 15,8 1 1 SW 1008,1 - 0,0
03.07.2020 05:00:00 20,7 15,3 9 5 SW 1008,0 - 0,0
03.07.2020 04:00:00 21,2 15,5 11 6 WNW 1008,1 - 0,0
03.07.2020 03:00:00 23,0 18,3 10 5 WNW 1007,4 - 0,0

tt = temperature
td = dewpoint
ff = wind speed
dd = wind direction
ppp = reduced air pressure
vv = visibility
rr = precipitation

Next stations